Weather History for Sarasota, FL

Change the Weather History Date:

Thursday, January 11, 2007

  Actual Average Record
Temperature  
Mean Temperature 64 °F 61 °F  
Max Temperature 77 °F 71 °F 85 °F (2013)
Min Temperature 50 °F 52 °F 28 °F (2010)
Degree Days  
Heating Degree Days 1 6  
Month to date heating degree days 15 64  
Since 1 July heating degree days 108 219  
Cooling Degree Days 0 2  
Month to date cooling degree days 58 22  
Year to date cooling degree days 58 22  
Growing Degree Days 14 (Base 50)    
Moisture  
Dew Point 49 °F    
Average Humidity 63    
Maximum Humidity 83    
Minimum Humidity 39    
Precipitation  
Precipitation 0.00 in 0.09 in 3.46 in (1915)
Month to date precipitation 0.49 1.27  
Year to date precipitation 0.49 1.27  
Sea Level Pressure  
Sea Level Pressure 30.34 in    
Wind  
Wind Speed 9 mph (ENE)    
Max Wind Speed 18 mph    
Max Gust Speed 23 mph    
Visibility 10 miles    
Events      
T = Trace of Precipitation, MM = Missing Value Source: NWS Daily Summary

Daily Weather History Graph

Daily Weather History Graph

Search for Another Location

Airport:

Trip Planner

Search our weather history database for the weather conditions in past years. The results will help you decide how hot, cold, wet, or windy it might be!

Date:

Astronomy

Jan. 11, 2007 Rise Set
Actual Time 7:21 AM EST 5:54 PM EST
Civil Twilight 6:56 AM EST 6:19 PM EST
Nautical Twilight 6:27 AM EST 6:48 PM EST
Astronomical Twilight 5:59 AM EST 7:16 PM EST
Moon 12:27 AM EST (1/11) 12:02 PM EST (1/11)
Length of Visible Light 11h 23m
Length of Day
10h 32m
Waning Gibbous, 48% of the Moon is Illuminated
Jan 11
Waning Gibbous
Jan 18
New
Jan 25
First Quarter
Feb 2
Full
Feb 10
Last Quarter

Hourly Weather History & Observations

Time (EST) Temp. Dew Point Humidity Pressure Visibility Wind Dir Wind Speed Gust Speed Precip Events Conditions
12:53 AM 52.0 °F 44.1 °F 74% 30.31 in 10.0 mi NE 9.2 mph - N/A   Clear
1:53 AM 50.0 °F 44.1 °F 80% 30.31 in 10.0 mi NE 8.1 mph - N/A   Clear
2:53 AM 50.0 °F 45.0 °F 83% 30.31 in 10.0 mi NE 9.2 mph - N/A   Clear
3:53 AM 50.0 °F 45.0 °F 83% 30.31 in 10.0 mi NE 9.2 mph - N/A   Clear
4:53 AM 50.0 °F 45.0 °F 83% 30.32 in 10.0 mi NE 8.1 mph - N/A   Partly Cloudy
5:53 AM 51.1 °F 46.0 °F 83% 30.33 in 10.0 mi NE 8.1 mph - N/A   Scattered Clouds
7:53 AM 52.0 °F 46.9 °F 83% 30.35 in 10.0 mi ENE 9.2 mph - N/A   Clear
8:53 AM 57.0 °F 48.9 °F 74% 30.38 in 10.0 mi NE 6.9 mph - N/A   Clear
9:53 AM 64.9 °F 50.0 °F 58% 30.39 in 10.0 mi ENE 10.4 mph - N/A   Clear
10:53 AM 70.0 °F 52.0 °F 53% 30.39 in 10.0 mi ENE 15.0 mph - N/A   Clear
11:53 AM 72.0 °F 52.0 °F 49% 30.36 in 10.0 mi ENE 16.1 mph 21.9 mph N/A   Partly Cloudy
12:53 PM 75.0 °F 51.1 °F 43% 30.34 in 10.0 mi East 11.5 mph - N/A   Mostly Cloudy
1:53 PM 75.0 °F 52.0 °F 44% 30.33 in 10.0 mi East 11.5 mph - N/A   Mostly Cloudy
2:53 PM 77.0 °F 50.0 °F 39% 30.30 in 10.0 mi ESE 12.7 mph - N/A   Mostly Cloudy
3:53 PM 75.9 °F 51.1 °F 42% 30.30 in 10.0 mi East 10.4 mph - N/A   Overcast
4:53 PM 73.0 °F 48.9 °F 42% 30.31 in 10.0 mi East 13.8 mph - N/A   Mostly Cloudy
5:53 PM 71.1 °F 50.0 °F 47% 30.32 in 10.0 mi East 10.4 mph - N/A   Mostly Cloudy
6:53 PM 66.0 °F 50.0 °F 56% 30.34 in 10.0 mi ENE 5.8 mph - N/A   Partly Cloudy
7:53 PM 64.0 °F 51.1 °F 63% 30.36 in 10.0 mi ENE 4.6 mph - N/A   Clear
8:53 PM 63.0 °F 52.0 °F 67% 30.37 in 10.0 mi ENE 8.1 mph - N/A   Clear
9:53 PM 63.0 °F 54.0 °F 72% 30.38 in 10.0 mi ENE 9.2 mph - N/A   Clear
10:53 PM 61.0 °F 54.0 °F 78% 30.37 in 10.0 mi East 8.1 mph - N/A   Clear